This is the latest recevied weather packets stored in our database for station/object KA4YMY. If no packets are shown the sender has not sent any weather packets the latest 10 day(s).
| Time | Temp. | Humidity | Pressure | Rain* | Wind** | Luminosity | Snow |
|---|---|---|---|---|---|---|---|
| 1777875317 | 10.56° C | 70% | 1016.6 hPa | 0 mm | - | - | - |
| 1777874717 | 11.11° C | 70% | 1016.5 hPa | 0 mm | - | - | - |
| 1777874117 | 11.11° C | 69% | 1016.6 hPa | 0 mm | - | - | - |
| 1777873517 | 11.67° C | 68% | 1016.8 hPa | 0 mm | - | - | - |
| 1777872917 | 11.67° C | 66% | 1016.7 hPa | 0 mm | - | - | - |
| 1777872317 | 11.67° C | 66% | 1016.5 hPa | 0 mm | - | - | - |
| 1777871717 | 12.22° C | 67% | 1016.3 hPa | 0 mm | - | - | - |
| 1777871117 | 12.22° C | 66% | 1016.3 hPa | 0 mm | - | - | - |
| 1777870517 | 12.22° C | 66% | 1016.5 hPa | 0 mm | - | - | - |
| 1777869917 | 12.22° C | 67% | 1016.4 hPa | 0 mm | - | - | - |
| 1777869317 | 12.22° C | 67% | 1016.6 hPa | 0 mm | - | - | - |
| 1777868717 | 12.22° C | 66% | 1016.6 hPa | 0 mm | - | - | - |
| 1777868117 | 12.22° C | 66% | 1016.8 hPa | 0 mm | - | - | - |
| 1777867517 | 12.78° C | 65% | 1016.9 hPa | 0 mm | - | - | - |
| 1777866916 | 12.78° C | 64% | 1016.9 hPa | 0 mm | - | - | - |
| 1777866316 | 13.33° C | 63% | 1016.8 hPa | 0 mm | - | - | - |
| 1777865716 | 13.33° C | 63% | 1017 hPa | 0 mm | - | - | - |
| 1777865116 | 13.89° C | 62% | 1017 hPa | 0 mm | - | - | - |
| 1777864516 | 13.89° C | 61% | 1017 hPa | 0 mm | - | - | - |
| 1777863916 | 14.44° C | 60% | 1017 hPa | 0 mm | - | - | - |
| 1777863316 | 14.44° C | 58% | 1017 hPa | 0 mm | - | - | - |
| 1777862716 | 15° C | 57% | 1016.9 hPa | 0 mm | - | - | - |
| 1777862116 | 15° C | 57% | 1016.8 hPa | 0 mm | - | - | - |
| 1777861516 | 14.44° C | 58% | 1016.5 hPa | 0 mm | - | - | - |
| 1777860916 | 14.44° C | 57% | 1016.4 hPa | 0 mm | - | - | - |
* Rain latest hour (hover to see other rain measurements)
** Current wind speed in m/s (hover to see current wind gust speed)